[ hide orbit diagram ]
For accurate long-term ephemerides, please instead use our Horizons system.This orbit viewer was implemented using two-body methods, and hence should not be used for determining accurate long-term trajectories (over several years or decades) or planetary encounter circumstances.
[ revert to old Java-based viewer ]
Orbital Elements at Epoch 2458600.5 (2019-Apr-27.0) TDB
Reference: JPL 15 (heliocentric ecliptic J2000)
Element | Value | Uncertainty (1-sigma) | Units |
e | .04829946420896982 | 5.6511e-08 | |
a | 2.690845552320684 | 4.3276e-08 | au |
q | 2.560879153874506 | 1.778e-07 | au |
i | 15.42308338383218 | 7.121e-06 | deg |
node | 76.41992379403629 | 2.6649e-05 | deg |
peri | 236.380470239769 | 9.8584e-05 | deg |
M | 319.686074705169 | 9.2143e-05 | deg |
tp | 2458781.044461146467 (2019-Oct-24.54446115) | 0.00041195 | TDB |
period | 1612.247022273017 4.41 | 3.8894e-05 1.065e-07 | d yr |
n | .2232908450297251 | 5.3867e-09 | deg/d |
Q | 2.820811950766863 | 4.5367e-08 | au |
|
| | Orbit Determination Parameters
Additional Information
|
[ show covariance matrix ]
Physical Parameter Table
Parameter |
Symbol |
Value |
Units |
Sigma |
Reference |
Notes |
absolute magnitude |
H |
15.6 |
|
n/a |
MPO437021 |
|
|
212864 (2007 VN115) Discovered 2007-Nov-03 by Spacewatch at Kitt Peak |
Reference: 20090409/Numbers.arc | Last Updated: 2009-04-10 |
|
|